Tracking 31027 objects as of 19-Jul-2025
HD Live streaming from Space Station
objects crossing your sky now

DELTA 1 R/B

Track DELTA 1 R/B now!
10-day predictions


NORAD ID: 6921
Int'l Code: 1973-086B
Perigee: 1,514.4 km
Apogee: 1,538.0 km
Inclination: 102.4 °
Period: 116.4 minutes
Semi major axis: 7897 km
RCS: 3.8464 m2 (large)
Launch date: November 6, 1973
Source: United States (US)
Launch site: AIR FORCE WESTERN TEST RANGE (AFWTR)

Note: This is a ROCKET BODY
Your satellite tracking list
STARLINK-3674
Track 1 satellite(s)




NASA's NSSDC Master Catalog

Two Line Element Set (TLE):
1 06921U 73086B   25199.51771773 -.00000045  00000-0  75643-5 0  9996
2 06921 102.3728 221.5470 0014928 155.5261 204.6511 12.37058930349073
Source of the keplerian elements: AFSPC